This is the latest recevied weather packets stored in our database for station/object K6CED. If no packets are shown the sender has not sent any weather packets the latest 10 day(s).
| Time | Temp. | Humidity | Pressure | Rain* | Wind** | Luminosity | Snow |
|---|---|---|---|---|---|---|---|
| 1787553040 | 22.78° C | 55% | 1016.1 hPa | 0 mm | - | 0 W/m² | - |
| 1787552737 | 22.78° C | 56% | 1016.2 hPa | 0 mm | - | 0 W/m² | - |
| 1787552432 | 22.78° C | 56% | 1016.3 hPa | 0 mm | - | 0 W/m² | - |
| 1787552127 | 22.78° C | 57% | 1016.3 hPa | 0 mm | - | 0 W/m² | - |
| 1787551826 | 23.33° C | 56% | 1016.4 hPa | 0 mm | - | 0 W/m² | - |
| 1787551522 | 23.89° C | 56% | 1016.1 hPa | 0 mm | - | 0 W/m² | - |
| 1787551222 | 23.33° C | 56% | 1016.1 hPa | 0 mm | - | 0 W/m² | - |
| 1787550916 | 23.33° C | 56% | 1016.1 hPa | 0 mm | - | 0 W/m² | - |
| 1787550612 | 23.89° C | 56% | 1016 hPa | 0 mm | - | 0 W/m² | - |
| 1787550308 | 24.44° C | 56% | 1016.1 hPa | 0 mm | - | 0 W/m² | - |
| 1787550003 | 24.44° C | 55% | 1016.3 hPa | 0 mm | - | 0 W/m² | - |
| 1787549699 | 24.44° C | 55% | 1016.2 hPa | 0 mm | - | 0 W/m² | - |
| 1787549394 | 24.44° C | 54% | 1016.3 hPa | 0 mm | - | 0 W/m² | - |
| 1787549090 | 24.44° C | 55% | 1016.5 hPa | 0 mm | - | 0 W/m² | - |
| 1787548785 | 25° C | 54% | 1016.6 hPa | 0 mm | - | 0 W/m² | - |
| 1787548481 | 25° C | 55% | 1016.9 hPa | 0 mm | - | 0 W/m² | - |
| 1787548177 | 25° C | 55% | 1016.9 hPa | 0 mm | - | 0 W/m² | - |
| 1787547873 | 25° C | 54% | 1016.7 hPa | 0 mm | - | 0 W/m² | - |
| 1787547571 | 25° C | 54% | 1017 hPa | 0 mm | - | 0 W/m² | - |
| 1787547268 | 25° C | 53% | 1016.6 hPa | 0 mm | - | 0 W/m² | - |
| 1787546963 | 25.56° C | 53% | 1016.6 hPa | 0 mm | - | 0 W/m² | - |
| 1787546659 | 25.56° C | 53% | 1016.3 hPa | 0 mm | - | 0 W/m² | - |
| 1787546354 | 25.56° C | 52% | 1016.4 hPa | 0 mm | - | 0 W/m² | - |
| 1787546050 | 25.56° C | 51% | 1016.4 hPa | 0 mm | - | 0 W/m² | - |
| 1787545745 | 26.11° C | 51% | 1016.4 hPa | 0 mm | - | 0 W/m² | - |
* Rain latest hour (hover to see other rain measurements)
** Current wind speed in m/s (hover to see current wind gust speed)